TimeMDT,TemperatureF,Dew PointF,Humidity,Sea Level PressureIn,VisibilityMPH,Wind Direction,Wind SpeedMPH,Gust SpeedMPH,PrecipitationIn,Events,Conditions,WindDirDegrees,DateUTC
12:15 AM,44.6,19.4,37,30.20,10.0,ESE,4.6,-,N/A,,Unknown,120,2013-04-29 06:15:00
12:35 AM,42.8,19.4,39,30.20,10.0,ESE,5.8,-,N/A,,Unknown,120,2013-04-29 06:35:00
12:55 AM,42.8,21.2,42,30.20,10.0,ESE,6.9,-,N/A,,Unknown,110,2013-04-29 06:55:00
1:15 AM,42.8,21.2,42,30.20,10.0,SE,5.8,-,N/A,,Unknown,130,2013-04-29 07:15:00
1:35 AM,41.0,21.2,45,30.20,10.0,East,4.6,-,N/A,,Unknown,80,2013-04-29 07:35:00
1:55 AM,41.0,21.2,45,30.19,10.0,ESE,6.9,-,N/A,,Unknown,120,2013-04-29 07:55:00
2:15 AM,41.0,21.2,45,30.18,10.0,ESE,4.6,-,N/A,,Unknown,120,2013-04-29 08:15:00
2:35 AM,41.0,21.2,45,30.18,10.0,ESE,5.8,-,N/A,,Unknown,110,2013-04-29 08:35:00
2:55 AM,41.0,21.2,45,30.18,10.0,SE,5.8,-,N/A,,Unknown,130,2013-04-29 08:55:00
3:15 AM,41.0,21.2,45,30.18,10.0,ESE,3.5,-,N/A,,Unknown,120,2013-04-29 09:15:00
3:35 AM,41.0,21.2,45,30.17,10.0,ESE,5.8,-,N/A,,Unknown,120,2013-04-29 09:35:00
3:55 AM,39.2,21.2,49,30.17,10.0,ESE,5.8,-,N/A,,Unknown,120,2013-04-29 09:55:00
4:15 AM,39.2,21.2,49,30.16,10.0,ESE,6.9,-,N/A,,Unknown,120,2013-04-29 10:15:00
4:35 AM,39.2,21.2,49,30.16,10.0,SE,5.8,-,N/A,,Unknown,130,2013-04-29 10:35:00
4:55 AM,39.2,21.2,49,30.16,10.0,SE,6.9,-,N/A,,Unknown,140,2013-04-29 10:55:00
5:15 AM,37.4,21.2,52,30.16,10.0,SE,4.6,-,N/A,,Unknown,130,2013-04-29 11:15:00
5:35 AM,37.4,21.2,52,30.16,10.0,SE,6.9,-,N/A,,Unknown,130,2013-04-29 11:35:00
5:55 AM,37.4,21.2,52,30.16,10.0,ESE,5.8,-,N/A,,Unknown,110,2013-04-29 11:55:00
6:15 AM,39.2,21.2,49,30.16,10.0,ESE,6.9,-,N/A,,Unknown,110,2013-04-29 12:15:00
6:35 AM,37.4,21.2,52,30.16,10.0,ESE,8.1,-,N/A,,Unknown,110,2013-04-29 12:35:00
6:55 AM,37.4,21.2,52,30.16,10.0,ESE,4.6,-,N/A,,Unknown,120,2013-04-29 12:55:00
7:15 AM,41.0,21.2,45,30.16,10.0,East,5.8,-,N/A,,Unknown,100,2013-04-29 13:15:00
7:35 AM,42.8,23.0,46,30.16,10.0,Calm,Calm,-,N/A,,Unknown,0,2013-04-29 13:35:00
7:55 AM,42.8,21.2,42,30.16,10.0,Calm,Calm,-,N/A,,Unknown,0,2013-04-29 13:55:00
8:15 AM,44.6,21.2,39,30.16,10.0,Calm,Calm,-,N/A,,Unknown,0,2013-04-29 14:15:00
8:35 AM,46.4,21.2,37,30.16,10.0,Calm,Calm,-,N/A,,Unknown,0,2013-04-29 14:35:00
8:55 AM,50.0,21.2,32,30.15,10.0,East,3.5,-,N/A,,Unknown,90,2013-04-29 14:55:00
9:15 AM,53.6,23.0,30,30.14,10.0,Calm,Calm,-,N/A,,Unknown,0,2013-04-29 15:15:00
9:35 AM,55.4,21.2,26,30.14,10.0,West,5.8,-,N/A,,Unknown,280,2013-04-29 15:35:00
9:55 AM,55.4,21.2,26,30.14,10.0,West,6.9,-,N/A,,Unknown,280,2013-04-29 15:55:00
10:15 AM,55.4,19.4,25,30.14,10.0,WSW,5.8,9.2,N/A,,Unknown,250,2013-04-29 16:15:00
10:35 AM,57.2,21.2,25,30.14,10.0,WNW,5.8,-,N/A,,Unknown,290,2013-04-29 16:35:00
10:55 AM,57.2,21.2,25,30.14,10.0,NW,5.8,18.4,N/A,,Unknown,310,2013-04-29 16:55:00
11:15 AM,59.0,21.2,23,30.14,10.0,North,4.6,16.1,N/A,,Unknown,10,2013-04-29 17:15:00
11:35 AM,59.0,21.2,23,30.14,10.0,WNW,6.9,19.6,N/A,,Unknown,300,2013-04-29 17:35:00
11:55 AM,59.0,19.4,22,30.14,10.0,West,8.1,23.0,N/A,,Unknown,270,2013-04-29 17:55:00
12:15 PM,59.0,17.6,20,30.14,10.0,WSW,10.4,24.2,N/A,,Unknown,250,2013-04-29 18:15:00
12:35 PM,59.0,19.4,22,30.13,10.0,West,8.1,18.4,N/A,,Unknown,270,2013-04-29 18:35:00
12:55 PM,59.0,19.4,22,30.12,10.0,WSW,13.8,24.2,N/A,,Unknown,240,2013-04-29 18:55:00
1:15 PM,60.8,17.6,19,30.11,10.0,WSW,17.3,24.2,N/A,,Unknown,240,2013-04-29 19:15:00
1:35 PM,60.8,15.8,17,30.11,10.0,West,17.3,26.5,N/A,,Unknown,270,2013-04-29 19:35:00
1:55 PM,60.8,15.8,17,30.10,10.0,SSW,6.9,23.0,N/A,,Unknown,210,2013-04-29 19:55:00
2:15 PM,60.8,15.8,17,30.09,10.0,WSW,16.1,26.5,N/A,,Unknown,250,2013-04-29 20:15:00
2:35 PM,60.8,14.0,16,30.08,10.0,WSW,12.7,21.9,N/A,,Unknown,250,2013-04-29 20:35:00
2:55 PM,62.6,15.8,16,30.09,10.0,West,12.7,24.2,N/A,,Unknown,280,2013-04-29 20:55:00
3:15 PM,62.6,14.0,15,30.07,10.0,WSW,8.1,21.9,N/A,,Unknown,250,2013-04-29 21:15:00
3:35 PM,62.6,14.0,15,30.07,10.0,West,17.3,26.5,N/A,,Unknown,280,2013-04-29 21:35:00
3:55 PM,62.6,14.0,15,30.06,10.0,WSW,12.7,20.7,N/A,,Unknown,250,2013-04-29 21:55:00
4:15 PM,62.6,12.2,14,30.05,10.0,SW,8.1,26.5,N/A,,Unknown,230,2013-04-29 22:15:00
4:35 PM,62.6,12.2,14,30.05,10.0,West,13.8,25.3,N/A,,Unknown,260,2013-04-29 22:35:00
4:55 PM,62.6,12.2,14,30.04,10.0,WSW,4.6,16.1,N/A,,Unknown,240,2013-04-29 22:55:00
5:15 PM,62.6,14.0,15,30.03,10.0,WSW,15.0,25.3,N/A,,Unknown,250,2013-04-29 23:15:00
5:35 PM,62.6,14.0,15,30.03,10.0,West,13.8,23.0,N/A,,Unknown,270,2013-04-29 23:35:00
5:55 PM,62.6,15.8,16,30.03,10.0,West,12.7,23.0,N/A,,Unknown,260,2013-04-29 23:55:00
6:15 PM,60.8,17.6,19,30.03,10.0,West,5.8,15.0,N/A,,Unknown,270,2013-04-30 00:15:00
6:35 PM,60.8,17.6,19,30.02,10.0,WSW,11.5,17.3,N/A,,Unknown,240,2013-04-30 00:35:00
6:55 PM,60.8,17.6,19,30.02,10.0,WSW,5.8,16.1,N/A,,Unknown,240,2013-04-30 00:55:00
7:15 PM,60.8,19.4,20,30.02,10.0,WSW,6.9,-,N/A,,Unknown,250,2013-04-30 01:15:00
7:35 PM,59.0,19.4,22,30.01,10.0,SW,8.1,16.1,N/A,,Unknown,230,2013-04-30 01:35:00
7:55 PM,59.0,19.4,22,30.02,10.0,SW,3.5,-,N/A,,Unknown,220,2013-04-30 01:55:00
8:15 PM,59.0,19.4,22,30.01,10.0,South,9.2,-,N/A,,Unknown,190,2013-04-30 02:15:00
8:35 PM,57.2,19.4,23,30.02,10.0,SW,4.6,-,N/A,,Unknown,230,2013-04-30 02:35:00
8:55 PM,55.4,17.6,23,30.02,10.0,WSW,6.9,-,N/A,,Unknown,250,2013-04-30 02:55:00
9:15 PM,55.4,17.6,23,30.03,10.0,Calm,Calm,-,N/A,,Unknown,0,2013-04-30 03:15:00
9:35 PM,55.4,17.6,23,30.03,10.0,Calm,Calm,-,N/A,,Unknown,0,2013-04-30 03:35:00
9:55 PM,53.6,19.4,26,30.03,10.0,East,4.6,-,N/A,,Unknown,90,2013-04-30 03:55:00
10:15 PM,51.8,19.4,28,30.03,10.0,ESE,6.9,-,N/A,,Unknown,120,2013-04-30 04:15:00
10:35 PM,50.0,19.4,30,30.03,10.0,Calm,Calm,-,N/A,,Unknown,0,2013-04-30 04:35:00
10:55 PM,50.0,19.4,30,30.03,10.0,Calm,Calm,-,N/A,,Unknown,0,2013-04-30 04:55:00
11:15 PM,50.0,19.4,30,30.02,10.0,ESE,3.5,-,N/A,,Unknown,110,2013-04-30 05:15:00
11:35 PM,50.0,19.4,30,30.01,10.0,East,6.9,-,N/A,,Unknown,100,2013-04-30 05:35:00
11:55 PM,48.2,21.2,34,30.01,10.0,SSE,6.9,-,N/A,,Unknown,150,2013-04-30 05:55:00